When you browse on this site, cookies collect data to enhance your experience and personalize the content and advertising you see.
Visit our Privacy Policy to learn more. By continuing to use the site, you agree to this use of cookies and data.
  • în România
  • Lista ţărilor
  • Pe 7 zile
  • Temperatura apei
  • Meteo pe hartă
  • Widget-uri
  • user-avatar
    Intrare

    Meteo pe oră la Wien

    Astăzi, 20 Septembrie, Vineri

    Timp Temperatura Precipitaţii Vânt Presiune Umiditate
    00:00 +9°C° 0 mm 2 m/s 752 mmHg 64%
    01:00 +8°C° 0 mm 2 m/s 752 mmHg 66%
    02:00 +8°C° 0 mm 2 m/s 752 mmHg 67%
    03:00 +8°C° 0 mm 2 m/s 752 mmHg 68%
    04:00 +7°C° 0 mm 2 m/s 752 mmHg 69%
    05:00 +8°C° 0 mm 2 m/s 752 mmHg 68%
    06:00 +8°C° 0 mm 2 m/s 752 mmHg 66%
    07:00 +9°C° 0 mm 2 m/s 752 mmHg 64%
    08:00 +10°C° 0 mm 2 m/s 752 mmHg 58%
    09:00 +13°C° 0 mm 2 m/s 752 mmHg 52%
    10:00 +15°C° 0 mm 2 m/s 752 mmHg 45%
    11:00 +16°C° 0 mm 2 m/s 752 mmHg 41%
    12:00 +17°C° 0 mm 2 m/s 751 mmHg 37%
    13:00 +19°C° 0 mm 1 m/s 751 mmHg 33%
    14:00 +19°C° 0 mm 1 m/s 750 mmHg 33%
    15:00 +19°C° 0 mm 1 m/s 750 mmHg 32%
    16:00 +19°C° 0 mm 1 m/s 750 mmHg 32%
    17:00 +16°C° 0 mm 1 m/s 750 mmHg 36%
    18:00 +15°C° 0 mm 1 m/s 750 mmHg 40%
    19:00 +12°C° 0 mm 0 m/s 750 mmHg 45%
    20:00 +12°C° 0 mm 0 m/s 750 mmHg 47%
    21:00 +11°C° 0 mm 0 m/s 751 mmHg 49%
    22:00 +10°C° 0 mm 0 m/s 751 mmHg 51%
    23:00 +10°C° 0 mm 0 m/s 751 mmHg 53%

    Mâine, 21 Septembrie, Sâmbătă

    Timp Temperatura Precipitaţii Vânt Presiune Umiditate
    00:00 +10°C° 0 mm 0 m/s 751 mmHg 55%
    01:00 +10°C° 0 mm 1 m/s 751 mmHg 57%
    02:00 +10°C° 0 mm 1 m/s 750 mmHg 58%
    03:00 +10°C° 0 mm 1 m/s 750 mmHg 59%
    04:00 +9°C° 0 mm 1 m/s 750 mmHg 61%
    05:00 +10°C° 0 mm 1 m/s 750 mmHg 60%
    06:00 +10°C° 0 mm 1 m/s 750 mmHg 59%
    07:00 +10°C° 0 mm 2 m/s 750 mmHg 58%
    08:00 +12°C° 0 mm 3 m/s 750 mmHg 51%
    09:00 +14°C° 0 mm 3 m/s 749 mmHg 45%
    10:00 +17°C° 0 mm 4 m/s 749 mmHg 38%
    11:00 +17°C° 0 mm 5 m/s 749 mmHg 35%
    12:00 +19°C° 0 mm 5 m/s 749 mmHg 33%
    13:00 +21°C° 0 mm 5 m/s 748 mmHg 30%
    14:00 +21°C° 0 mm 5 m/s 748 mmHg 30%
    15:00 +21°C° 0 mm 5 m/s 747 mmHg 31%
    16:00 +21°C° 0 mm 5 m/s 747 mmHg 31%
    17:00 +19°C° 0 mm 5 m/s 747 mmHg 36%
    18:00 +17°C° 0 mm 4 m/s 747 mmHg 40%
    19:00 +15°C° 0 mm 4 m/s 747 mmHg 44%
    20:00 +14°C° 0 mm 4 m/s 747 mmHg 46%
    21:00 +13°C° 0 mm 4 m/s 747 mmHg 47%
    22:00 +13°C° 0 mm 4 m/s 747 mmHg 49%
    23:00 +12°C° 0 mm 4 m/s 746 mmHg 50%

    Poimâine, 22 Septembrie, Duminică

    Timp Temperatura Precipitaţii Vânt Presiune Umiditate
    00:00 +12°C° 0 mm 4 m/s 746 mmHg 52%
    01:00 +11°C° 0 mm 4 m/s 746 mmHg 54%
    02:00 +11°C° 0 mm 4 m/s 746 mmHg 54%
    03:00 +10°C° 0 mm 5 m/s 745 mmHg 54%
    04:00 +10°C° 0 mm 5 m/s 745 mmHg 54%
    05:00 +10°C° 0 mm 5 m/s 745 mmHg 53%
    06:00 +10°C° 0 mm 5 m/s 745 mmHg 52%
    07:00 +10°C° 0 mm 5 m/s 745 mmHg 51%
    08:00 +13°C° 0 mm 5 m/s 744 mmHg 45%
    09:00 +15°C° 0 mm 6 m/s 744 mmHg 40%
    10:00 +17°C° 0 mm 6 m/s 744 mmHg 34%
    11:00 +19°C° 0 mm 6 m/s 744 mmHg 33%
    12:00 +20°C° 0 mm 6 m/s 743 mmHg 32%
    13:00 +22°C° 0 mm 6 m/s 743 mmHg 31%
    14:00 +21°C° 0 mm 6 m/s 742 mmHg 35%
    15:00 +21°C° 0 mm 5 m/s 742 mmHg 39%
    16:00 +21°C° 0 mm 5 m/s 741 mmHg 42%
    17:00 +20°C° 0 mm 4 m/s 741 mmHg 48%
    18:00 +19°C° 0 mm 4 m/s 740 mmHg 54%
    19:00 +17°C° 0 mm 3 m/s 740 mmHg 59%
    20:00 +17°C° 0 mm 3 m/s 740 mmHg 61%
    21:00 +17°C° 0 mm 3 m/s 740 mmHg 63%
    22:00 +17°C° 0 mm 3 m/s 739 mmHg 65%
    23:00 +16°C° 0 mm 2 m/s 739 mmHg 69%

    23 Septembrie, Luni

    Timp Temperatura Precipitaţii Vânt Presiune Umiditate
    00:00 +16°C° 0 mm 2 m/s 738 mmHg 72%
    01:00 +15°C° 0 mm 2 m/s 738 mmHg 76%
    02:00 +14°C° 0 mm 2 m/s 738 mmHg 78%
    03:00 +14°C° 0 mm 1 m/s 737 mmHg 80%
    04:00 +13°C° 0 mm 1 m/s 737 mmHg 82%
    05:00 +14°C° 0 mm 1 m/s 737 mmHg 81%
    06:00 +14°C° 0 mm 1 m/s 737 mmHg 79%
    07:00 +14°C° 0 mm 1 m/s 737 mmHg 78%
    08:00 +16°C° 0 mm 2 m/s 737 mmHg 71%
    09:00 +18°C° 0 mm 3 m/s 738 mmHg 65%
    10:00 +20°C° 0 mm 4 m/s 738 mmHg 58%
    11:00 +21°C° 0 mm 5 m/s 738 mmHg 58%
    12:00 +21°C° 0 mm 5 m/s 738 mmHg 57%
    13:00 +22°C° 0 mm 5 m/s 738 mmHg 57%
    14:00 +21°C° 0 mm 6 m/s 738 mmHg 61%
    15:00 +20°C° 0 mm 6 m/s 738 mmHg 64%
    16:00 +19°C° 0 mm 6 m/s 738 mmHg 67%
    17:00 +17°C° 0 mm 7 m/s 738 mmHg 70%
    18:00 +16°C° 0 mm 7 m/s 738 mmHg 72%
    19:00 +15°C° 0 mm 7 m/s 739 mmHg 75%
    20:00 +15°C° 0 mm 7 m/s 739 mmHg 75%
    21:00 +15°C° 0 mm 7 m/s 739 mmHg 75%
    22:00 +15°C° 0 mm 7 m/s 740 mmHg 75%
    23:00 +15°C° 0 mm 7 m/s 740 mmHg 75%

    24 Septembrie, Marţi

    Timp Temperatura Precipitaţii Vânt Presiune Umiditate
    00:00 +15°C° 0 mm 7 m/s 740 mmHg 76%
    01:00 +15°C° 0 mm 7 m/s 740 mmHg 76%
    02:00 +15°C° 0 mm 6 m/s 740 mmHg 76%
    03:00 +15°C° 0 mm 6 m/s 740 mmHg 77%
    04:00 +15°C° 0 mm 6 m/s 740 mmHg 77%
    05:00 +15°C° 0 mm 6 m/s 740 mmHg 77%
    06:00 +15°C° 0 mm 6 m/s 740 mmHg 77%
    07:00 +15°C° 0 mm 6 m/s 740 mmHg 77%
    08:00 +16°C° 0 mm 7 m/s 741 mmHg 73%
    09:00 +17°C° 0 mm 7 m/s 741 mmHg 69%
    10:00 +18°C° 0 mm 7 m/s 741 mmHg 64%
    11:00 +18°C° 0 mm 7 m/s 741 mmHg 62%
    12:00 +20°C° 0 mm 7 m/s 741 mmHg 60%
    13:00 +21°C° 0 mm 7 m/s 741 mmHg 58%
    14:00 +20°C° 0.1 mm 6 m/s 741 mmHg 60%
    15:00 +20°C° 0.1 mm 6 m/s 741 mmHg 61%
    16:00 +20°C° 0.1 mm 6 m/s 741 mmHg 63%
    17:00 +17°C° 0 mm 6 m/s 741 mmHg 67%
    18:00 +16°C° 0 mm 5 m/s 741 mmHg 71%
    19:00 +15°C° 0 mm 5 m/s 741 mmHg 75%
    20:00 +15°C° 0 mm 4 m/s 742 mmHg 77%
    21:00 +14°C° 0 mm 3 m/s 742 mmHg 79%
    22:00 +14°C° 0 mm 3 m/s 742 mmHg 80%
    23:00 +13°C° 0 mm 3 m/s 742 mmHg 81%

    25 Septembrie, Miercuri

    Timp Temperatura Precipitaţii Vânt Presiune Umiditate
    00:00 +14°C° 0 mm 2 m/s 742 mmHg 82%
    01:00 +14°C° 0 mm 2 m/s 741 mmHg 82%
    02:00 +13°C° 0 mm 2 m/s 741 mmHg 83%
    03:00 +13°C° 0 mm 1 m/s 741 mmHg 83%
    04:00 +13°C° 0 mm 1 m/s 741 mmHg 83%
    05:00 +13°C° 0 mm 1 m/s 741 mmHg 80%
    06:00 +14°C° 0 mm 1 m/s 741 mmHg 77%
    07:00 +13°C° 0 mm 0 m/s 741 mmHg 74%
    08:00 +16°C° 0 mm 1 m/s 740 mmHg 68%
    09:00 +18°C° 0 mm 1 m/s 740 mmHg 62%
    10:00 +19°C° 0 mm 1 m/s 740 mmHg 56%
    11:00 +21°C° 0 mm 1 m/s 740 mmHg 51%
    12:00 +21°C° 0 mm 2 m/s 739 mmHg 47%
    13:00 +24°C° 0 mm 2 m/s 739 mmHg 43%
    14:00 +24°C° 0 mm 2 m/s 738 mmHg 43%
    15:00 +24°C° 0 mm 2 m/s 738 mmHg 43%
    16:00 +24°C° 0 mm 2 m/s 738 mmHg 43%
    17:00 +23°C° 0 mm 2 m/s 738 mmHg 49%
    18:00 +21°C° 0 mm 2 m/s 738 mmHg 54%
    19:00 +20°C° 0 mm 2 m/s 738 mmHg 60%
    20:00 +19°C° 0 mm 3 m/s 738 mmHg 67%
    21:00 +18°C° 0 mm 3 m/s 739 mmHg 74%
    22:00 +17°C° 0 mm 4 m/s 739 mmHg 81%
    23:00 +17°C° 0 mm 3 m/s 739 mmHg 81%
    Arată mai mult